Theta_e
293 289 287 287 289 289 290 292 290 290 290 289 289 288 287 286 287 288 288 290 290 291 288 287 287 289 292 296 295 289 288 288 287 288 290 291 292 292 292 294 297 299 301 304 304 307 309 312 316 318 319 320 319 320 320 321 321 322 323 322 322 323 322 322 323 325 327 327 327 327 328 326 328 327 327 327 328 327 326 325 325 325 325 325 326 326
294 287 287 289 291 291 292 292 292 290 288 288 287 287 288 286 286 289 289 290 290 290 286 285 286 288 289 293 295 289 289 290 289 289 289 291 292 292 292 292 293 297 298 298 298 301 305 308 311 315 317 317 318 319 320 320 321 322 322 322 323 323 322 322 323 324 325 327 328 328 328 328 328 327 326 327 327 327 326 325 324 325 325 324 325 325
288 286 290 292 292 291 291 292 292 291 289 288 287 285 285 286 287 289 288 289 289 290 288 285 286 287 289 292 294 290 290 291 291 291 293 293 291 291 292 292 293 293 295 296 298 299 302 305 308 312 315 317 319 320 320 321 321 321 322 323 323 323 322 322 323 323 324 325 326 327 325 328 323 322 327 328 327 325 326 325 324 324 324 324 324 325
284 288 291 292 291 291 289 290 292 292 292 289 288 286 284 287 286 286 288 290 289 288 287 286 283 286 289 291 292 292 291 291 292 290 291 291 292 292 294 294 294 293 294 295 296 297 299 302 306 309 312 315 317 318 319 320 321 322 321 322 323 323 322 323 323 322 325 324 324 324 321 322 325 321 316 320 318 322 323 324 323 323 324 323 324 325
289 289 291 290 291 291 288 288 289 289 289 290 290 287 286 287 288 287 287 289 288 287 287 286 286 287 288 290 292 291 285 288 290 289 289 289 290 293 293 292 293 294 295 296 297 296 296 298 302 308 311 314 315 317 318 319 321 322 321 322 322 323 323 324 322 322 323 320 316 315 314 314 317 314 313 316 320 322 321 323 322 323 323 324 325 324
289 289 291 290 289 289 288 286 287 288 286 289 290 290 289 288 288 288 288 288 286 283 284 285 280 279 280 284 288 293 286 287 285 287 290 292 291 291 291 292 294 294 294 295 296 297 296 297 299 302 307 311 314 315 318 319 321 321 322 321 322 323 324 324 323 322 322 321 322 320 321 320 320 322 320 319 322 320 320 322 319 321 323 323 324 323
290 288 291 289 288 287 288 287 288 290 287 287 288 291 291 290 289 288 287 287 282 281 286 284 282 278 282 285 286 285 283 285 287 285 289 290 290 290 292 293 294 294 295 294 294 293 292 294 295 298 304 309 311 314 316 317 319 320 321 321 322 323 323 323 323 322 320 322 322 322 323 324 323 322 323 317 313 320 316 319 322 323 320 322 323 323
286 285 287 288 288 287 286 286 287 290 286 282 288 290 292 290 289 288 288 286 283 284 287 283 283 278 279 286 287 284 284 285 286 288 287 289 290 290 291 293 294 295 295 295 295 294 293 293 294 296 299 305 310 313 313 315 317 318 319 320 321 321 320 322 323 322 322 322 322 321 322 321 322 322 321 316 312 311 313 317 319 319 318 318 320 323
289 285 287 285 286 285 286 288 288 290 286 283 287 290 291 291 289 289 288 284 283 283 282 282 283 280 276 280 282 282 286 287 286 287 288 290 291 291 291 292 293 294 294 293 294 295 294 294 294 296 297 301 306 309 312 314 315 317 318 318 318 320 320 320 320 321 321 321 322 322 322 321 321 320 316 308 308 312 310 315 309 314 315 315 316 320
287 288 289 289 287 285 287 288 288 291 287 286 287 291 292 291 290 289 286 285 284 281 280 282 281 277 279 278 282 282 284 284 286 287 288 289 291 291 291 291 291 290 291 291 292 294 294 294 294 294 294 295 301 305 307 307 308 312 313 315 316 318 319 319 319 320 321 321 320 322 321 321 320 315 306 309 309 310 308 314 309 311 312 313 314 316
287 290 290 288 287 289 287 284 287 291 290 289 289 288 287 287 286 283 284 284 283 278 281 283 281 281 277 281 285 284 284 285 287 287 287 287 288 288 287 288 289 290 289 290 290 292 293 291 291 292 295 296 296 299 304 307 310 311 312 315 316 318 319 318 319 319 320 321 321 322 321 321 320 314 312 310 308 307 307 312 308 310 313 313 315 314
285 286 288 287 288 287 288 285 286 287 288 290 286 283 286 285 285 285 282 283 279 278 280 281 280 280 276 278 282 285 285 282 286 287 288 290 290 288 286 286 287 287 288 288 288 290 290 291 291 291 293 295 297 297 302 306 306 309 312 313 315 315 316 317 318 318 319 320 320 321 321 320 320 316 314 315 313 309 311 310 309 308 310 310 311 312
285 285 284 288 289 289 285 286 285 286 289 286 284 286 282 278 280 277 279 276 277 277 279 278 280 279 280 284 285 286 286 287 285 287 290 290 288 287 287 288 289 289 290 291 291 290 290 291 292 293 294 293 294 298 300 303 304 306 308 310 313 314 314 315 316 317 318 318 319 320 320 320 319 316 315 315 314 310 311 309 309 308 310 309 310 310
283 281 284 286 288 289 290 285 282 281 285 284 284 282 280 276 274 273 272 270 271 277 279 279 281 279 282 281 287 289 293 294 295 292 289 289 289 290 291 290 290 290 291 292 293 292 292 292 293 293 293 294 294 294 296 297 300 302 305 307 310 313 312 312 314 316 316 317 318 318 319 319 317 315 314 315 314 310 312 310 311 311 312 309 312 310
280 279 285 285 283 287 289 289 288 283 284 286 283 286 281 277 272 270 270 273 275 278 278 279 278 278 278 283 283 289 292 292 291 291 290 288 288 287 287 288 289 290 292 291 292 293 293 293 291 292 291 291 292 292 293 294 296 297 301 304 306 309 309 310 312 314 315 316 316 316 317 317 315 315 314 314 314 311 311 310 311 311 311 312 310 309
285 282 282 285 285 288 288 287 288 287 286 284 283 283 280 282 279 275 274 272 271 273 275 276 279 280 283 284 287 287 288 288 289 289 289 290 288 287 289 291 292 293 293 291 292 293 292 291 290 291 292 292 291 291 292 293 294 295 298 300 304 308 308 308 309 312 314 314 314 313 314 315 313 311 313 312 310 311 312 310 311 309 309 310 308 305
280 280 283 284 286 287 289 288 287 290 282 283 284 283 283 285 285 276 274 276 274 272 274 275 279 282 282 286 291 292 286 289 288 288 287 287 287 286 288 291 292 293 292 292 292 292 292 290 290 291 292 292 291 292 294 294 294 295 295 296 299 301 302 305 307 310 310 311 311 312 313 313 313 313 313 312 310 310 310 311 310 309 307 305 304 304
284 279 283 283 284 286 284 285 285 285 286 284 280 284 285 285 283 281 275 270 272 273 274 274 279 278 279 280 284 283 288 291 291 290 288 288 287 287 290 291 292 291 291 291 291 291 291 291 291 291 291 292 293 294 293 293 292 293 294 295 297 298 301 302 304 306 309 310 311 311 312 313 313 313 313 312 310 309 309 308 306 304 303 303 303 303
286 278 283 283 283 286 284 286 287 287 286 285 282 287 287 278 277 277 275 273 268 268 271 271 275 277 281 284 283 284 283 288 291 292 288 289 288 289 290 290 290 288 289 291 291 291 291 291 292 292 293 291 291 291 292 294 295 295 293 293 294 297 299 300 302 303 305 308 310 311 311 311 311 312 312 311 310 308 308 306 305 305 304 301 300 299
284 277 279 283 284 285 286 286 282 283 286 286 286 285 284 281 279 275 278 272 273 273 267 273 272 280 283 282 285 289 289 288 289 288 289 290 289 289 289 290 289 289 289 290 290 291 292 291 291 291 291 292 293 293 292 294 296 296 296 295 295 295 295 298 302 303 306 306 307 307 307 309 310 310 310 308 308 307 307 306 305 303 301 301 299 300
282 282 275 282 284 284 282 283 283 285 283 282 282 281 283 281 282 279 278 277 276 269 268 272 272 280 282 286 288 290 291 292 294 293 290 291 290 290 289 289 288 288 288 289 289 289 291 291 290 289 289 291 289 289 290 295 298 298 297 297 298 300 301 302 303 304 305 305 306 305 306 306 307 307 307 306 307 307 306 304 302 302 301 298 298 296
282 282 279 280 281 281 279 282 282 287 288 287 286 283 285 281 277 277 277 277 272 274 269 268 276 282 282 286 291 290 291 292 293 293 290 289 289 289 289 288 287 287 287 287 288 288 289 289 289 287 288 287 288 290 292 296 298 298 298 299 299 301 302 303 303 304 304 304 304 305 305 304 305 306 305 305 305 304 302 300 300 297 296 297 293 294
283 282 282 275 279 282 284 285 283 284 284 283 286 285 285 284 280 275 275 272 273 275 271 271 269 280 286 287 288 290 291 291 290 288 290 289 289 288 288 287 287 286 287 288 288 288 288 287 287 287 286 288 288 290 290 293 298 299 298 299 299 301 302 303 304 303 303 303 303 303 302 301 301 302 303 302 301 299 298 297 295 295 296 294 292 291
290 282 279 279 281 281 283 284 285 284 285 285 282 280 282 284 282 280 276 274 277 272 274 272 273 279 284 283 284 285 285 284 281 283 288 288 288 289 288 288 287 286 286 287 286 286 286 286 286 286 287 287 287 288 290 294 296 298 298 299 299 299 300 300 301 301 301 301 299 298 298 299 299 300 300 299 298 297 295 294 294 294 294 293 292 291
285 281 283 273 273 277 279 285 283 284 284 280 281 281 281 281 279 277 277 276 277 275 277 274 276 276 284 282 283 284 285 286 285 283 284 287 288 288 288 288 289 289 289 288 287 287 286 287 287 289 289 289 288 286 287 291 295 296 297 297 298 298 298 298 298 299 298 298 296 296 296 296 297 297 297 296 295 293 293 293 293 293 292 291 290 290
284 281 283 277 275 273 272 274 278 281 281 280 280 281 283 284 282 282 279 276 278 280 280 278 280 281 280 282 287 285 285 286 285 284 282 284 287 288 287 288 289 290 292 290 289 288 289 289 288 287 287 288 287 288 289 289 292 294 295 296 296 297 295 295 296 297 297 296 296 295 295 295 295 295 294 293 292 292 292 292 292 292 291 291 290 289
282 283 285 285 282 280 282 283 284 286 284 283 283 285 285 287 287 287 282 277 280 281 280 284 284 281 284 286 284 286 286 286 287 285 286 287 285 285 285 285 287 289 291 291 290 290 288 288 289 289 288 289 287 287 287 288 290 291 293 294 294 294 295 295 296 296 296 296 295 295 293 293 293 293 292 292 292 291 292 292 291 292 291 290 290 289
284 284 285 284 285 286 284 280 285 289 285 287 285 284 286 286 285 286 282 283 281 277 278 284 283 282 281 280 282 283 285 284 284 285 285 283 285 285 285 286 289 289 290 288 289 290 291 291 289 288 288 287 288 287 287 287 288 291 293 294 293 293 294 295 294 295 295 295 294 293 292 291 291 292 292 291 291 292 291 291 291 291 290 289 289 289
287 285 286 285 285 284 280 283 285 287 287 286 286 286 284 285 284 284 284 286 283 283 281 281 284 283 284 285 285 286 287 288 288 287 286 285 283 282 285 288 289 291 290 290 292 292 292 292 292 290 289 288 287 288 287 287 287 287 289 291 291 292 293 293 294 294 294 293 293 292 291 291 291 291 291 290 291 290 290 290 290 289 289 288 288 288
288 285 285 285 285 283 281 282 284 285 283 283 285 285 286 285 284 286 286 287 286 285 286 280 283 284 285 287 287 287 287 288 286 285 284 284 285 284 285 286 287 289 290 291 293 293 293 293 291 290 288 288 288 289 288 288 287 288 289 290 290 292 292 292 293 293 293 293 292 291 290 290 290 290 290 290 290 290 289 289 288 287 287 287 286 286
288 280 287 282 280 278 280 281 283 283 283 282 282 284 285 286 286 286 287 287 286 286 287 283 282 283 286 285 286 287 287 286 287 285 288 288 286 285 285 286 287 288 289 290 290 291 292 291 291 290 289 289 289 289 289 289 288 288 288 289 290 291 291 292 293 293 293 293 291 290 290 290 290 290 290 290 289 288 287 286 286 286 285 285 284 284
283 277 278 278 277 274 277 279 279 279 280 280 280 282 284 284 283 285 284 285 283 284 285 284 283 285 285 288 289 289 288 288 288 290 290 290 288 284 284 287 288 289 289 290 290 290 289 289 290 289 290 290 289 288 289 289 288 287 288 288 289 290 290 291 292 293 293 292 290 290 290 290 289 289 289 288 287 286 286 285 285 285 284 283 283 283
279 277 276 277 279 272 276 279 280 278 277 276 280 283 285 285 286 285 287 287 288 288 284 283 285 286 288 290 290 288 288 290 290 291 292 291 289 288 289 290 290 290 290 290 291 290 290 290 291 291 291 290 290 290 289 289 288 288 289 288 288 288 289 290 291 292 291 290 289 289 289 289 288 288 287 287 286 285 284 284 283 283 282 282 282 282
284 284 278 281 279 273 275 278 278 277 273 278 289 288 286 285 285 283 284 286 287 287 287 290 290 287 286 286 288 289 289 291 292 294 294 294 293 289 288 288 289 290 290 289 289 290 290 290 291 291 291 292 290 288 287 288 289 288 288 288 287 287 288 289 289 290 290 288 288 288 288 288 288 287 286 284 284 283 283 283 283 282 282 281 281 281
286 286 282 278 277 274 274 278 279 275 277 288 288 288 290 288 287 287 288 288 288 289 289 289 289 285 286 289 291 292 291 290 289 291 291 289 289 290 290 289 289 289 289 289 289 288 289 290 290 291 290 288 288 286 287 287 287 286 286 286 286 286 287 287 288 288 288 288 287 287 287 286 286 285 284 283 282 282 282 282 281 281 281 281 281 280
287 287 281 277 278 274 274 280 274 276 286 284 281 281 284 289 289 287 286 288 288 288 289 288 290 291 288 288 288 287 286 284 284 284 285 286 286 289 288 288 289 288 288 289 289 290 290 289 289 289 289 288 287 287 288 288 287 287 286 286 287 285 286 286 287 286 286 286 285 285 285 285 284 284 283 282 282 282 282 281 281 280 280 280 279 279
290 288 285 277 273 277 274 279 278 279 280 285 285 283 286 285 283 284 282 286 288 289 289 289 290 290 290 288 286 285 284 285 286 289 284 285 289 287 289 290 291 290 289 290 289 290 288 288 289 288 287 287 288 288 288 287 287 287 286 285 286 286 286 286 286 286 286 286 285 285 284 284 284 283 282 282 282 281 281 281 280 280 280 279 279 279
288 286 285 283 273 273 274 269 268 273 275 282 287 284 287 287 289 289 286 286 290 290 291 290 289 290 290 289 286 284 286 286 287 290 289 292 293 292 288 289 289 288 288 288 287 286 286 285 286 286 288 287 287 288 287 286 287 287 286 286 285 285 285 286 287 287 286 286 285 284 284 284 284 283 282 282 282 281 281 280 280 279 279 279 278 278
282 282 285 285 276 271 272 275 274 274 280 282 282 286 288 289 289 287 281 281 288 289 290 290 290 290 289 289 284 285 285 284 286 289 288 290 290 290 292 290 289 289 289 287 287 287 286 286 286 286 285 286 287 286 286 286 287 287 286 286 285 285 285 286 287 287 286 285 284 284 284 283 283 283 282 281 281 281 280 280 279 278 278 278 278 277
284 279 281 275 270 278 279 274 276 274 280 280 283 284 287 287 290 288 274 281 284 288 290 290 290 290 290 288 286 287 286 285 287 289 292 291 289 289 288 291 289 288 287 285 284 284 285 283 286 286 285 286 287 285 286 286 286 286 286 286 285 285 286 287 287 285 284 284 284 283 283 282 282 282 281 281 280 280 279 279 278 277 277 277 277 276
278 275 278 280 279 277 281 272 269 276 282 280 283 286 286 291 290 280 277 286 286 288 289 290 290 291 290 286 287 286 287 292 292 292 286 284 287 285 284 284 286 285 286 284 284 284 283 283 285 287 286 286 284 284 285 286 286 286 285 285 284 285 287 285 284 284 284 283 283 282 282 281 281 281 280 280 280 279 278 277 277 277 276 275 275 275
276 279 272 277 277 278 279 279 277 277 282 284 280 286 288 288 277 281 288 283 285 283 284 287 289 287 287 286 287 289 291 290 290 287 285 285 287 284 283 282 282 283 282 281 281 281 282 282 283 283 284 284 283 284 285 285 286 285 284 284 285 286 282 283 283 283 282 282 281 281 280 280 279 279 279 278 278 277 276 275 276 276 275 275 275 274
282 281 277 279 276 270 268 275 270 273 285 287 285 283 285 286 287 285 283 284 283 285 285 284 287 286 288 287 288 290 289 286 287 288 288 286 285 286 285 283 284 285 284 284 284 282 282 283 283 283 282 281 282 283 284 285 285 284 284 285 285 282 282 282 282 281 281 280 280 279 279 278 278 278 277 277 277 276 274 274 274 273 274 274 274 273
286 282 277 280 283 280 279 276 279 285 284 288 289 286 287 286 285 287 289 287 284 283 286 287 284 285 287 288 287 286 286 285 284 284 284 284 284 285 284 283 282 281 281 279 280 280 280 282 281 282 280 280 281 283 284 285 285 284 284 284 280 281 280 281 280 280 280 279 279 278 277 277 277 276 276 276 275 275 273 273 273 273 273 274 274 273
286 286 286 282 285 283 282 284 282 281 287 290 292 292 292 292 285 286 290 290 287 284 283 286 288 284 285 287 286 287 285 285 286 285 286 286 285 285 285 285 283 282 281 281 281 278 278 281 280 279 279 279 279 281 282 284 285 284 284 282 280 280 280 279 279 279 278 278 277 277 276 275 275 275 275 274 275 274 273 272 272 273 272 273 273 273
284 284 282 284 282 281 282 283 281 280 282 288 284 283 292 291 284 284 286 289 286 287 286 288 286 285 284 284 286 282 285 286 286 283 283 283 283 283 281 281 280 279 278 278 278 277 277 277 276 276 278 277 277 278 279 281 282 284 282 278 279 279 279 278 278 278 277 276 276 275 274 274 273 272 273 273 274 274 274 274 273 274 273 273 274 274
282 281 284 282 280 285 283 287 283 283 284 285 288 285 285 288 288 284 283 285 285 284 286 284 287 286 285 284 286 287 285 283 284 284 283 282 283 283 282 281 280 279 278 277 277 275 276 275 276 276 275 277 275 275 276 277 278 279 276 278 278 278 278 278 278 277 276 275 274 273 273 274 273 272 272 272 272 272 273 273 274 274 273 274 274 274
283 282 287 278 281 285 286 285 283 283 285 287 287 287 287 288 286 283 283 281 282 283 285 284 282 283 283 284 285 285 284 283 284 283 282 282 282 281 280 280 279 278 276 275 275 274 275 275 277 276 275 276 276 275 275 276 276 274 274 275 277 277 277 277 277 277 275 274 273 273 273 274 273 273 272 272 272 272 272 272 274 274 274 274 275 275
284 287 284 282 283 283 282 279 280 283 284 285 285 283 284 286 288 285 283 282 282 283 282 280 280 281 283 284 283 283 283 282 281 282 282 280 280 279 279 279 277 277 275 276 273 273 276 275 275 275 275 275 275 274 274 274 273 271 275 276 276 276 277 276 275 274 273 273 272 272 272 272 272 273 272 271 271 272 273 273 274 274 275 275 277 278
286 286 286 285 284 284 285 286 283 283 279 284 283 286 286 285 287 287 283 284 282 283 282 283 279 278 279 279 281 283 284 282 280 280 280 279 279 278 277 277 275 275 273 273 272 272 273 273 273 274 273 274 272 272 273 272 271 271 273 274 275 276 277 275 274 273 273 272 272 272 271 271 271 271 271 271 271 271 270 274 276 274 273 274 276 277
289 287 286 285 285 285 289 284 288 288 285 288 289 288 289 287 286 287 286 287 286 283 282 284 282 280 279 279 278 282 280 281 280 279 278 278 277 277 276 276 276 275 274 272 272 272 272 272 272 272 272 272 271 271 271 271 270 271 271 274 275 276 276 275 274 273 272 272 272 272 271 271 271 270 271 271 271 271 271 270 271 276 276 276 276 277
Wind_Speed
2 7 7 8 8 8 5 4 6 2 5 6 4 3 1 2 4 3 3 3 2 2 5 6 5 7 8 9 13 0 0 2 4 6 7 7 7 7 7 8 9 10 15 8 5 8 9 10 10 9 8 9 8 8 9 10 11 11 12 10 12 10 8 8 8 8 8 9 8 7 10 11 8 6 6 6 6 6 6 6 7 7 7 7 7 7
5 7 7 8 10 12 10 7 3 3 3 5 6 3 0 2 3 2 2 3 3 3 3 1 2 8 11 11 12 1 1 7 7 7 7 9 9 8 7 9 10 13 5 6 7 5 7 9 10 9 10 9 11 12 11 13 13 12 11 12 13 8 9 10 10 9 9 9 10 8 9 6 6 6 7 7 5 6 5 7 7 7 6 7 7 7
3 8 10 9 5 5 5 6 4 3 4 3 2 3 2 2 3 8 1 3 3 1 7 2 3 7 9 12 13 5 7 7 7 9 10 9 8 7 8 10 11 6 9 7 9 7 8 9 9 9 10 11 13 13 14 13 11 12 12 13 11 10 10 10 10 9 10 8 8 9 6 9 5 5 7 7 7 7 8 8 8 7 7 7 6 6
3 6 13 5 7 8 3 5 5 3 1 3 4 2 3 2 2 5 2 1 1 2 3 1 5 8 8 7 12 8 8 7 8 7 10 7 8 10 12 10 7 8 10 12 12 10 10 9 8 7 9 12 12 12 10 10 13 11 12 12 12 10 10 10 11 11 10 9 7 7 6 6 8 6 5 6 5 6 7 8 6 6 6 6 6 6
12 4 4 10 9 10 7 6 7 6 5 2 3 3 2 1 2 2 4 9 4 1 1 4 7 8 7 9 9 3 1 4 8 5 6 8 8 9 6 5 7 11 11 12 11 8 8 8 11 14 13 8 10 11 12 12 13 11 14 13 12 11 11 10 10 11 8 5 5 4 2 2 2 1 3 4 6 6 6 5 6 6 5 6 7 6
5 2 9 13 8 7 7 6 6 7 5 2 3 5 3 2 3 3 4 8 6 5 2 1 4 7 4 5 9 9 5 5 3 3 9 11 8 6 9 13 10 9 9 12 13 11 8 10 8 5 6 10 11 12 14 13 14 13 11 11 11 11 10 11 10 10 9 9 9 8 8 7 6 8 7 9 10 6 6 6 3 5 7 6 6 6
4 3 11 13 10 6 8 7 8 9 7 7 6 9 6 6 4 1 6 3 4 2 1 1 4 7 6 5 4 4 5 9 8 4 10 9 8 7 10 12 12 12 12 10 10 9 6 8 7 8 10 12 12 14 11 10 12 12 11 11 13 12 11 10 10 10 10 10 9 12 12 11 11 11 9 6 4 5 5 4 5 6 5 6 7 6
5 4 5 7 10 12 8 9 5 11 7 4 3 11 7 4 3 3 4 3 6 3 4 2 2 5 7 9 5 2 4 8 10 9 8 10 9 10 10 12 12 12 11 11 11 10 8 8 10 13 13 11 15 12 8 10 9 11 13 12 12 10 10 10 10 11 11 12 11 10 11 11 11 11 10 7 5 4 6 7 7 5 5 5 5 6
13 8 11 9 7 7 10 8 7 9 7 5 4 10 9 7 6 5 2 3 2 3 9 1 1 2 5 7 4 1 5 7 9 10 9 9 10 10 11 12 11 11 10 7 10 11 11 12 12 11 10 11 10 7 10 10 10 10 9 9 8 10 10 9 10 11 11 11 12 12 11 11 9 8 5 4 4 6 5 6 4 5 5 5 5 5
1 10 15 15 11 10 6 6 10 13 7 5 4 5 5 5 2 2 3 1 2 1 11 4 0 3 9 5 5 2 2 6 8 10 10 10 10 9 9 9 8 7 7 6 9 11 10 9 8 7 5 5 8 6 6 6 5 6 7 9 10 11 10 10 11 11 11 12 10 11 11 12 10 6 3 5 6 5 5 6 5 4 4 4 4 5
1 5 3 7 10 7 7 2 8 14 6 5 7 5 4 3 2 3 2 2 1 7 7 1 3 3 9 6 9 6 6 6 7 7 7 7 7 8 7 9 8 6 6 7 7 9 10 6 5 4 8 7 4 5 6 7 8 7 8 10 11 13 10 10 11 12 13 12 12 12 12 12 11 8 7 6 6 5 4 6 5 5 5 5 5 4
2 2 4 2 3 5 5 4 5 0 5 8 2 4 5 1 3 2 1 2 3 9 1 1 1 4 8 4 6 7 4 3 5 6 10 11 11 7 5 6 6 5 5 6 5 9 7 6 7 4 7 6 6 4 7 8 7 8 9 9 12 10 10 10 11 11 12 11 12 12 12 12 11 10 9 11 10 9 9 7 7 5 4 4 4 4
1 4 2 1 4 11 5 7 2 2 1 4 4 6 7 2 3 3 2 5 9 5 1 0 2 1 16 10 6 6 8 6 6 11 14 10 8 7 6 8 7 6 5 6 7 7 6 7 7 6 7 5 5 8 7 8 8 7 7 10 12 13 11 11 11 12 13 12 12 12 12 11 10 10 10 10 9 8 8 7 7 7 6 5 5 5
5 2 0 3 3 4 12 11 5 4 4 6 7 6 7 5 4 6 2 1 4 5 4 1 1 6 5 6 13 13 15 16 16 12 10 10 12 11 9 6 7 8 6 7 6 6 7 6 5 5 5 5 5 5 6 5 6 7 7 8 10 12 9 8 9 11 11 12 12 11 11 10 9 9 9 9 9 9 8 8 9 9 9 9 9 8
8 5 10 9 4 3 8 9 13 7 7 11 4 8 6 3 4 4 3 7 6 7 1 2 2 8 3 4 2 12 10 7 7 8 6 6 7 6 6 9 10 11 11 5 7 8 6 5 4 4 3 3 4 4 5 4 5 4 6 7 9 8 8 9 10 9 11 11 10 9 9 9 7 9 9 8 8 9 9 7 9 8 8 9 7 8
15 3 3 0 2 8 10 3 7 8 7 4 4 5 4 8 5 3 5 4 3 2 3 3 7 2 4 4 8 6 10 12 10 11 6 11 6 4 6 8 9 9 8 4 6 6 5 5 4 3 4 3 3 3 3 4 5 5 7 6 8 10 8 8 9 9 10 10 8 8 9 9 8 7 7 6 6 7 9 9 10 9 9 7 7 5
3 7 1 4 3 6 12 8 4 10 9 6 7 11 8 5 5 3 2 1 2 2 9 2 8 7 7 8 10 13 6 11 6 8 5 7 5 3 7 9 9 7 5 4 5 5 4 3 3 4 4 3 3 3 5 5 5 6 6 6 7 7 5 7 9 9 8 8 8 8 8 8 8 9 10 9 9 9 8 8 8 8 7 7 7 7
13 3 1 4 3 1 2 1 3 2 4 8 7 8 3 2 4 4 4 1 2 7 8 3 10 4 3 11 3 3 13 15 13 10 4 4 4 4 8 8 6 6 5 5 5 4 4 4 4 4 4 4 4 4 3 4 2 3 4 5 6 6 7 6 6 7 7 8 9 8 9 9 10 10 9 9 9 8 8 6 6 6 7 7 7 8
7 4 1 0 1 2 2 4 3 1 2 7 7 6 9 4 5 2 2 5 1 3 6 3 2 7 10 11 4 4 3 11 14 13 2 6 5 6 7 9 6 5 6 6 4 4 3 3 4 4 4 3 3 2 2 2 2 2 3 3 4 6 6 6 5 5 5 6 7 7 9 9 9 8 8 8 8 9 9 9 8 9 8 8 8 8
1 7 2 1 3 1 0 3 12 4 3 1 3 4 1 4 2 4 7 3 5 7 1 8 4 15 5 7 9 12 9 10 10 9 10 7 5 5 6 6 5 6 5 5 4 3 4 4 4 3 3 3 3 2 2 2 2 3 3 3 3 3 2 2 3 4 5 5 5 5 5 6 7 8 8 8 9 8 9 10 10 9 9 9 8 8
4 2 6 1 2 2 5 4 9 12 9 3 3 4 1 1 2 4 1 5 5 3 3 5 8 8 3 8 10 11 12 14 15 17 8 5 5 6 5 6 6 6 6 5 4 4 4 4 4 3 2 3 3 2 2 2 3 3 2 2 3 4 3 4 4 5 5 5 5 6 7 6 6 7 6 8 9 10 9 8 8 9 9 9 8 9
4 1 10 3 3 6 6 2 4 11 11 10 11 11 12 9 5 6 9 3 1 2 5 1 14 8 3 2 10 11 11 11 11 16 5 2 5 5 5 5 5 6 5 5 5 4 4 4 4 3 2 1 1 1 1 2 2 2 3 4 4 4 4 5 5 5 6 6 6 7 7 7 6 8 8 8 7 7 8 8 8 9 9 9 7 8
5 4 9 5 4 4 1 1 3 0 2 4 8 9 8 6 5 4 7 3 2 3 3 1 3 14 4 7 7 7 8 10 9 5 8 3 4 4 5 4 5 5 6 5 4 4 4 4 3 3 3 3 3 2 2 2 3 3 3 3 4 5 5 5 5 4 5 6 6 6 6 6 6 6 7 8 7 8 8 7 7 7 10 9 8 5
7 5 7 2 1 3 3 3 0 1 2 1 2 2 6 10 7 7 5 6 6 1 0 2 6 7 2 0 5 6 6 6 3 1 5 6 5 5 5 4 4 4 4 4 3 3 3 3 2 2 4 4 4 4 4 4 3 3 3 3 3 4 4 3 3 4 4 4 4 5 5 5 6 7 7 8 7 8 7 8 8 7 9 9 8 9
6 2 10 5 3 1 5 2 2 1 1 1 4 2 3 5 7 4 6 1 1 7 7 6 18 7 3 2 3 5 5 7 6 3 3 6 5 5 5 3 3 4 5 4 4 3 3 3 4 5 5 5 5 4 4 4 4 4 4 3 4 3 3 3 3 4 4 5 6 4 5 5 5 7 6 7 7 8 8 8 8 7 10 9 8 8
3 7 10 10 13 13 10 10 16 16 11 1 1 5 6 9 10 5 5 5 7 11 15 8 17 2 3 3 0 2 1 6 6 7 4 6 7 6 3 3 4 3 4 4 4 4 4 5 4 5 5 5 4 5 4 4 4 4 3 4 3 5 4 3 4 4 6 5 7 6 6 5 5 6 7 8 8 9 9 9 8 9 7 9 10 8
2 2 7 11 15 17 20 9 7 17 8 11 12 16 15 14 17 11 3 4 18 6 10 22 16 1 0 0 1 4 2 7 7 4 4 6 7 7 5 5 4 4 5 5 4 4 3 5 8 7 5 6 5 5 5 4 4 4 3 3 3 3 5 5 5 5 6 6 6 7 6 6 6 7 7 7 8 7 8 8 8 9 9 7 10 10
4 5 11 10 12 14 2 3 8 20 18 17 16 16 14 13 11 15 12 22 6 11 15 12 5 9 6 4 5 5 5 5 6 7 6 4 5 6 5 4 6 5 5 4 5 6 8 8 6 7 7 6 7 5 6 5 5 6 6 6 4 4 5 5 5 5 5 6 6 6 7 5 5 7 7 7 8 8 8 8 8 8 8 9 10 10
11 12 14 12 14 8 1 7 10 13 14 14 17 15 14 14 13 18 23 17 9 14 18 8 12 9 10 8 8 8 7 8 9 7 7 6 4 4 3 4 5 6 5 5 7 7 7 9 8 7 7 7 5 8 7 5 4 3 3 3 3 4 5 6 6 6 6 6 7 6 6 7 6 6 7 8 8 8 8 8 8 8 8 8 8 7
9 10 8 10 13 4 2 3 8 11 3 4 12 15 17 17 20 25 25 20 17 17 13 6 7 14 5 10 9 8 8 6 3 1 1 2 5 4 5 5 6 7 8 8 9 8 7 8 7 6 5 5 8 8 6 5 5 4 5 5 4 4 4 5 5 7 6 6 6 6 6 6 7 7 7 8 8 8 8 8 8 8 8 8 7 8
8 6 8 5 5 1 4 4 1 2 7 6 5 8 12 17 22 25 23 16 15 17 15 5 6 12 7 5 5 8 5 2 0 4 8 9 6 7 6 6 7 8 9 8 8 9 8 7 8 7 7 10 9 10 9 8 7 6 6 6 6 6 5 4 6 6 7 6 6 6 7 7 7 7 8 7 7 7 7 8 7 7 7 7 7 9
3 2 2 5 6 1 3 5 4 6 3 1 4 9 15 20 21 20 13 8 6 20 11 10 16 19 2 7 7 9 3 3 6 8 7 7 7 5 5 8 9 10 10 10 9 7 6 8 8 9 11 11 10 9 9 9 8 8 9 7 7 6 4 5 4 6 5 5 6 6 7 6 7 7 7 7 7 6 6 7 7 8 8 8 9 8
4 5 4 5 8 3 3 4 8 5 3 3 10 20 26 18 13 5 9 12 21 16 8 17 24 4 10 12 13 8 7 9 10 9 11 11 9 8 10 11 12 11 11 10 10 8 7 9 9 9 10 8 9 11 9 7 8 10 8 8 6 6 7 6 5 5 5 4 5 6 5 5 7 6 7 7 7 7 7 8 7 8 9 9 8 8
8 9 6 5 8 3 1 7 4 7 6 14 19 11 9 16 15 7 12 20 15 7 16 16 14 6 5 7 10 13 13 16 15 16 14 12 11 10 11 11 11 11 9 8 8 9 8 7 8 9 9 8 5 5 5 8 9 6 6 7 7 8 7 7 6 6 6 6 6 6 6 7 7 8 7 7 7 7 8 8 8 7 7 8 8 9
12 8 5 2 5 4 4 4 7 11 11 22 3 8 16 11 13 23 28 17 14 18 20 17 15 6 9 12 16 16 11 9 8 11 11 8 7 9 9 10 11 11 11 9 9 9 10 10 8 9 7 3 3 4 6 6 6 5 6 7 7 7 8 7 7 7 7 8 7 7 7 8 8 8 7 7 7 7 8 9 8 8 8 8 9 9
14 13 6 3 6 5 4 9 9 16 14 1 2 2 2 13 20 18 19 18 14 15 18 21 24 17 11 11 7 0 3 4 5 6 8 9 7 10 7 8 10 9 9 11 11 11 10 7 6 6 6 3 5 5 7 7 6 7 7 7 9 8 8 8 8 8 8 9 9 10 9 9 8 8 8 8 8 9 9 8 9 10 8 8 7 6
23 12 10 6 0 10 6 11 11 6 8 8 10 7 16 15 11 15 13 16 15 16 18 21 18 13 13 11 5 1 0 2 5 9 4 8 11 7 11 12 11 11 10 11 8 9 5 2 3 4 4 4 5 7 8 6 8 7 7 8 7 8 8 9 10 11 11 11 10 10 10 9 10 9 9 9 10 10 10 10 9 8 7 9 8 8
5 18 11 14 4 6 8 1 2 4 9 20 15 1 3 4 10 9 8 16 9 16 17 18 19 18 17 10 6 5 1 3 12 14 8 12 13 8 9 11 8 6 6 8 6 5 5 4 2 3 5 5 6 7 5 6 8 8 8 8 7 9 8 9 12 10 9 9 8 8 9 10 11 11 11 10 11 11 8 6 6 7 7 10 10 9
4 2 7 15 6 5 5 10 10 12 20 7 6 9 10 12 14 10 4 15 10 16 17 19 18 15 15 12 8 8 7 9 15 14 9 11 8 7 11 9 9 10 9 7 6 6 6 5 4 4 4 4 6 5 5 8 9 8 9 8 8 8 9 11 12 11 11 9 8 8 7 7 7 8 9 10 9 8 9 9 9 7 6 7 7 8
8 5 6 4 6 10 12 8 12 6 9 3 6 6 14 9 15 10 3 17 4 15 15 16 18 17 16 11 13 13 13 13 13 11 11 8 8 9 8 10 8 7 8 4 3 5 5 3 1 1 4 6 7 4 7 7 8 9 9 8 7 9 12 16 11 5 5 6 7 7 8 7 8 8 9 10 7 7 7 7 8 8 8 7 7 8
7 1 7 15 11 6 8 4 2 8 7 5 8 8 12 15 13 9 16 17 9 12 14 17 19 18 15 11 13 11 13 13 13 10 1 2 1 3 5 5 6 4 6 4 4 3 2 3 5 6 6 5 3 5 6 7 7 8 6 6 8 13 12 3 4 6 6 6 7 7 8 7 8 9 8 7 8 7 7 7 8 9 9 9 8 8
5 7 2 5 10 14 13 12 10 6 8 12 5 15 16 11 7 23 9 4 12 6 2 8 12 7 7 13 11 11 13 15 10 4 4 4 6 2 4 4 4 4 4 2 3 2 3 2 4 3 1 1 4 5 6 7 8 6 7 7 12 10 3 4 5 6 6 7 7 7 7 7 5 6 7 6 7 8 7 5 6 7 8 8 9 10
17 13 12 13 3 7 4 5 1 9 13 21 14 2 7 14 16 6 5 3 2 7 10 5 7 7 12 11 13 14 9 3 7 9 9 5 3 6 5 5 5 5 4 2 1 0 2 2 2 3 3 1 4 5 6 7 7 7 6 11 9 3 4 5 6 7 7 7 8 8 8 7 8 8 7 7 7 8 8 6 7 7 8 9 9 10
12 12 7 8 13 17 15 14 14 13 7 19 25 18 15 5 2 8 8 5 1 4 8 8 5 8 11 11 12 9 7 6 3 5 5 6 7 8 5 4 4 4 4 2 1 1 1 2 1 2 1 2 4 5 6 9 8 7 8 10 3 5 5 6 6 7 8 8 8 8 8 8 9 8 8 9 9 9 9 8 8 8 8 9 10 10
13 15 10 16 12 9 12 13 1 4 16 16 14 10 12 11 2 3 10 9 9 5 4 6 10 7 9 10 10 11 7 7 8 6 7 9 7 7 8 6 4 5 4 4 3 1 2 4 4 3 2 2 4 4 6 6 9 8 9 4 6 6 7 7 7 7 7 7 7 7 6 6 7 8 8 9 10 11 10 10 10 10 8 9 9 10
1 2 2 6 4 3 4 2 2 1 3 11 2 1 11 11 5 3 5 9 5 8 12 10 8 10 9 6 9 3 8 9 9 5 6 6 5 5 4 4 2 0 0 0 1 1 3 2 2 3 4 2 2 3 4 5 5 8 5 4 6 6 7 8 8 7 7 7 7 7 7 8 6 5 6 7 8 9 10 12 12 11 10 9 9 10
3 3 2 3 1 8 11 9 6 2 0 6 6 1 2 7 7 6 3 5 6 7 11 5 8 11 12 10 10 12 10 7 8 8 6 4 5 6 4 3 1 1 3 3 3 2 2 3 3 4 4 4 2 3 3 4 4 2 3 5 5 6 7 8 8 7 6 7 6 6 7 9 8 7 6 7 7 7 8 8 9 9 11 11 11 10
5 4 8 2 7 13 16 7 5 7 8 11 10 7 6 6 4 4 2 1 0 1 1 2 4 6 7 8 10 9 8 7 9 8 6 5 4 2 3 2 2 1 1 2 1 1 1 2 3 2 2 3 3 2 3 3 3 2 3 4 5 5 7 7 7 8 7 8 7 7 7 8 9 10 8 8 9 9 8 7 8 10 12 14 13 12
5 10 8 9 8 6 3 2 4 4 5 9 8 5 3 6 9 6 5 2 1 4 4 3 2 4 6 5 5 5 4 5 5 4 4 4 4 3 3 3 3 3 2 2 2 2 4 2 2 1 1 2 0 1 1 1 1 3 5 5 6 7 7 7 5 5 5 6 6 7 6 7 8 8 8 8 7 6 7 10 11 11 8 5 5 9
9 15 8 10 10 11 16 13 13 9 5 7 5 9 10 9 8 8 4 3 3 4 5 6 3 2 3 2 5 6 6 4 4 4 4 3 3 2 2 2 2 2 2 1 1 1 0 1 1 1 2 2 2 3 3 2 2 2 3 5 6 7 8 7 7 6 6 6 6 6 6 5 6 6 6 7 8 7 5 2 3 3 4 6 4 1
16 14 12 13 14 16 14 6 13 8 6 9 15 15 14 8 8 9 10 11 9 5 6 8 7 3 3 1 0 4 4 5 4 4 4 2 2 2 1 1 1 1 1 2 2 1 2 1 2 2 2 1 1 1 1 2 1 2 3 5 6 7 8 8 8 6 6 6 7 8 8 7 7 7 7 7 8 7 8 5 2 2 2 2 3 4
Wind_Direction
126 141 173 185 188 181 179 147 127 142 121 121 96 91 196 356 305 300 281 296 348 327 247 239 255 247 254 240 263 2 48 276 280 270 252 249 245 237 233 229 232 231 235 247 227 219 219 222 219 218 211 217 216 217 212 211 211 208 207 199 214 206 196 192 192 195 197 204 209 212 212 216 211 208 203 210 209 205 205 197 202 203 201 198 198 199
70 143 211 198 183 177 174 161 139 86 70 107 104 81 49 102 322 265 293 313 326 178 299 4 255 261 261 266 263 221 312 267 239 244 259 254 242 240 232 241 237 237 272 268 252 230 223 220 215 208 210 208 212 217 211 212 211 208 206 208 215 201 197 200 197 195 199 204 205 202 215 213 206 200 203 215 206 208 201 200 203 203 198 197 198 196
136 190 214 205 166 134 131 154 157 135 106 74 108 117 54 305 232 284 289 333 320 126 260 333 277 261 250 254 265 213 224 246 235 210 231 233 250 244 239 242 245 245 251 254 244 226 219 219 214 205 209 212 215 218 213 213 207 207 209 212 211 203 198 203 199 194 204 203 205 200 203 198 209 213 206 213 207 199 203 204 203 196 193 194 198 196
166 270 232 165 141 128 118 149 164 192 113 111 96 99 173 233 58 235 266 45 317 187 276 310 320 281 279 264 262 244 213 236 245 230 243 229 233 235 232 228 238 246 250 249 241 225 220 214 210 207 209 213 210 217 214 209 212 211 213 210 209 205 199 201 202 202 206 202 197 205 196 197 195 193 199 204 202 199 201 210 196 194 191 188 196 197
187 244 146 140 152 147 156 161 155 181 219 145 143 110 117 190 216 156 289 327 299 331 47 303 296 285 254 265 281 275 250 285 274 272 274 260 238 248 279 296 228 231 233 245 253 237 218 209 211 206 211 205 211 213 210 205 208 210 210 207 205 205 205 205 201 201 198 181 180 167 98 113 146 32 143 195 216 204 196 193 192 195 178 189 198 194
248 285 153 147 155 150 133 149 171 144 211 235 201 163 172 168 228 267 309 352 347 334 350 65 330 289 290 274 243 267 332 297 284 281 255 251 246 244 250 248 248 242 239 236 244 237 222 220 226 218 210 206 213 215 215 207 210 207 207 201 204 207 207 206 201 193 185 192 188 180 191 188 196 212 198 204 211 187 191 198 156 173 190 195 198 195
192 181 154 154 144 144 150 170 196 156 186 190 220 166 175 204 189 266 292 19 302 298 294 80 217 280 326 305 262 287 325 287 291 274 267 269 259 239 235 241 242 235 242 240 250 252 235 228 216 220 211 212 213 221 211 210 213 209 205 200 202 206 206 202 197 187 186 196 199 198 202 204 206 214 222 211 181 180 184 161 178 187 187 192 195 199
120 162 123 139 147 160 162 189 206 164 148 215 202 163 184 200 166 254 260 201 243 271 292 65 159 255 285 267 269 276 301 288 298 287 266 264 259 245 238 239 237 238 236 236 238 242 234 232 212 220 216 209 215 215 204 215 209 205 207 201 202 202 203 200 195 191 190 196 199 202 209 210 213 210 216 184 187 172 164 180 194 191 195 194 199 198
144 174 165 166 159 161 189 191 168 157 148 213 193 161 186 189 175 231 233 239 229 346 279 331 355 298 249 272 297 328 275 272 272 269 270 264 256 249 247 247 243 242 247 239 247 246 234 227 224 227 220 219 220 206 205 209 208 209 208 206 203 203 199 199 193 194 195 198 198 202 206 213 220 214 201 158 158 165 169 180 184 192 195 192 202 205
310 174 181 165 157 189 194 180 152 162 167 262 156 103 95 97 92 161 205 245 291 266 261 262 147 249 272 267 305 339 234 271 261 261 254 248 247 252 259 267 265 265 264 255 248 255 252 239 236 235 250 245 221 213 209 209 198 202 197 202 200 208 200 195 195 195 197 199 198 204 208 212 212 194 157 160 166 168 170 176 182 184 177 180 188 203
174 327 191 133 189 187 157 123 162 174 185 115 110 84 54 52 78 41 92 124 19 253 272 192 248 180 291 223 207 213 223 199 240 276 268 257 263 268 258 258 268 271 268 264 263 263 263 264 254 240 227 230 226 209 198 202 199 193 195 200 204 209 199 194 196 192 199 198 200 208 207 209 209 191 173 167 172 158 159 174 171 175 183 180 187 180
26 21 140 247 106 76 108 85 359 60 121 131 126 129 97 29 38 90 343 72 211 258 336 268 157 163 236 296 256 230 261 233 224 250 269 277 268 258 265 268 265 265 270 276 273 271 272 282 262 250 248 235 224 202 206 204 194 195 198 196 206 208 200 196 194 194 200 197 203 208 206 207 206 185 185 189 184 177 177 175 174 171 156 178 167 173
72 150 251 276 268 139 136 112 355 68 70 94 97 109 135 218 115 260 128 231 215 226 224 123 176 359 238 235 276 263 251 267 216 224 239 252 277 282 267 270 272 264 277 280 276 277 277 259 256 241 241 237 224 213 206 203 197 199 197 197 201 210 202 197 192 196 198 198 203 203 204 207 199 192 192 190 185 180 176 171 160 162 173 162 166 181
259 286 294 242 78 264 147 154 160 123 198 145 150 160 146 170 170 210 230 346 323 297 255 152 128 268 280 294 223 243 259 243 251 245 241 243 249 262 276 283 290 282 264 267 267 264 264 262 262 253 248 234 235 224 213 206 198 199 200 201 204 214 198 199 197 200 199 204 203 200 202 202 190 193 186 188 184 181 179 172 173 176 175 175 182 175
160 229 236 150 211 169 170 170 167 158 153 192 137 160 179 139 162 198 184 208 221 218 231 268 84 234 96 249 251 231 247 288 267 267 252 253 254 263 277 283 278 278 275 252 257 254 255 260 255 261 248 243 234 228 220 210 208 195 205 201 208 212 204 196 202 200 205 206 202 200 201 196 186 186 186 188 182 175 177 179 172 179 173 177 178 176
205 206 289 248 296 152 176 190 139 120 140 204 173 77 141 223 129 166 204 151 219 260 279 207 210 189 187 265 282 213 259 267 271 273 271 268 263 252 281 268 264 261 270 270 262 267 260 250 262 258 257 246 241 238 229 216 202 199 211 208 211 211 204 200 200 205 205 205 198 196 194 194 184 182 180 181 181 182 179 176 177 177 176 174 159 150
65 236 3 329 56 171 181 146 189 157 177 210 118 206 204 176 141 89 45 13 83 36 256 135 289 278 303 291 265 278 254 269 253 252 254 275 284 281 264 262 260 259 273 277 259 263 271 285 263 244 245 246 235 232 219 213 202 205 206 211 221 226 224 207 205 204 200 200 193 196 192 184 181 181 184 183 182 178 180 176 177 170 166 144 150 147
161 152 14 74 169 325 10 308 123 9 143 108 187 212 134 109 111 145 218 354 179 224 264 116 242 295 311 284 318 314 259 262 273 261 272 274 286 278 252 257 267 278 274 269 264 261 263 269 277 275 256 244 235 231 240 246 241 234 225 211 215 220 220 221 211 208 201 196 196 190 191 188 187 185 185 179 177 172 163 162 148 131 138 156 153 146
129 83 262 258 183 298 354 108 53 355 2 149 195 185 140 235 238 299 113 241 150 265 269 291 279 258 211 246 336 331 258 255 274 290 311 275 255 251 280 282 283 296 297 284 276 272 270 258 257 258 259 272 279 300 294 314 287 269 257 245 231 227 227 220 213 213 212 203 197 192 190 185 185 184 179 176 169 164 165 163 161 161 152 135 140 138
51 127 309 327 136 238 67 144 189 184 352 66 83 104 330 103 154 139 195 176 123 250 27 286 47 261 161 215 201 241 263 267 258 256 271 272 285 274 267 276 294 298 287 290 282 273 269 270 260 260 273 292 290 276 243 218 203 234 237 223 234 267 262 209 204 203 206 202 190 185 181 187 181 176 169 165 161 168 170 166 159 147 145 151 143 141
167 121 153 268 338 101 174 212 202 155 155 117 117 172 172 81 254 113 96 148 185 194 203 277 300 263 230 194 184 217 223 242 256 268 248 259 266 270 275 284 294 290 286 279 276 274 269 274 288 299 287 267 267 258 242 190 197 203 184 215 216 205 200 197 194 186 195 176 183 169 175 170 165 165 162 162 169 166 163 154 151 152 144 134 141 137
117 114 147 142 118 207 256 241 179 175 177 170 171 189 180 137 151 169 239 49 94 151 232 229 263 265 266 167 195 199 226 229 240 256 238 228 268 255 264 274 257 282 277 262 265 256 260 265 275 289 292 283 254 277 237 225 178 180 190 193 189 200 197 193 188 191 176 180 172 177 170 171 169 162 159 162 159 151 146 146 145 137 131 132 134 137
139 107 104 151 203 175 228 334 265 192 98 179 166 208 171 167 114 155 199 255 30 246 113 171 296 273 209 182 216 213 218 233 253 285 288 239 242 264 265 266 275 245 257 262 254 248 244 238 247 251 259 258 242 248 260 244 207 205 201 185 191 190 202 193 190 182 171 168 170 172 165 158 157 153 155 149 146 140 140 133 127 138 133 131 132 126
91 100 87 11 336 302 307 264 328 322 110 129 327 63 140 185 175 167 160 185 162 253 178 304 262 268 321 300 253 261 274 291 323 223 278 290 293 283 283 283 281 294 276 270 261 249 241 241 257 263 246 243 244 231 220 218 217 221 209 200 186 200 189 174 158 155 157 152 140 135 135 142 141 143 146 145 141 135 129 130 128 129 125 129 133 132
143 246 119 121 55 354 339 313 321 325 298 214 150 170 124 97 83 129 102 105 265 212 165 132 250 239 266 288 287 268 287 298 297 288 212 265 273 271 273 277 292 290 298 299 288 274 292 282 254 239 234 233 236 238 226 217 209 203 211 194 186 180 165 146 137 138 130 131 126 123 128 131 138 136 133 128 128 129 130 132 131 131 134 132 130 134
95 176 143 153 160 170 187 192 208 203 186 191 90 122 150 142 133 126 195 192 223 216 168 205 244 248 280 306 327 285 308 292 265 246 265 233 262 273 296 318 314 297 278 279 278 292 264 253 261 259 250 246 243 234 226 221 215 209 204 205 185 156 145 148 142 139 137 137 135 133 132 135 133 135 134 133 133 140 141 139 138 137 137 139 134 135
151 146 181 178 180 186 197 194 66 100 119 178 193 167 185 182 179 179 136 117 222 212 171 228 222 290 341 254 284 275 194 240 257 258 235 261 275 278 271 276 277 274 268 266 266 265 296 272 251 247 244 239 239 239 236 220 214 210 204 188 166 168 159 156 148 143 141 144 143 141 145 147 145 139 140 143 141 140 140 140 139 140 141 144 141 144
120 172 211 200 216 220 133 145 186 145 173 191 166 190 183 173 173 182 174 221 118 83 235 234 153 215 247 270 265 265 263 248 250 249 259 265 259 253 265 283 291 295 270 279 279 264 248 250 252 243 239 236 236 231 234 224 210 199 191 188 179 166 157 154 148 147 144 146 145 150 148 144 143 141 141 139 142 144 144 140 140 142 142 145 148 149
178 204 205 191 220 208 90 151 165 166 183 185 179 180 178 184 174 193 216 213 130 202 233 121 166 207 217 216 221 214 209 205 215 221 219 235 271 291 296 289 283 269 285 271 255 251 248 248 244 238 229 231 228 230 226 221 216 213 219 200 185 174 177 164 156 155 155 158 156 155 148 142 143 138 138 141 142 142 145 144 143 145 147 148 144 142
162 225 200 189 210 148 20 146 177 164 154 128 189 191 191 179 194 207 218 212 201 224 225 168 185 216 190 212 211 221 216 205 212 207 337 257 248 239 245 259 258 258 256 257 252 248 241 247 258 255 245 237 227 229 225 218 210 201 193 198 197 194 187 164 167 160 163 165 158 148 150 149 147 149 147 149 152 152 148 145 145 145 144 142 140 136
162 230 135 149 174 207 6 32 21 131 148 184 222 203 199 203 209 214 218 216 219 248 246 274 290 266 244 216 249 262 229 199 148 242 232 236 238 223 219 243 259 259 255 255 262 252 243 244 245 244 234 233 222 218 211 206 198 191 200 198 190 191 180 186 172 172 165 168 156 155 152 153 159 155 158 156 148 147 146 143 141 137 133 133 135 130
85 200 58 97 155 246 1 69 44 57 39 149 214 210 214 213 217 222 220 209 184 232 223 248 256 247 135 226 233 249 285 269 257 259 258 254 244 226 234 248 251 257 256 254 253 258 251 242 242 234 232 229 221 212 208 201 192 189 201 184 187 181 163 186 185 174 179 165 160 165 164 162 156 157 152 144 146 145 141 139 141 142 142 140 134 129
133 112 103 131 153 219 306 150 99 82 55 316 251 222 214 213 221 221 230 214 215 213 192 220 239 112 193 196 219 233 231 240 245 250 259 260 252 243 242 245 245 245 252 254 257 258 248 240 237 235 236 230 217 211 210 191 187 203 192 179 179 149 167 180 177 173 171 160 165 165 160 154 158 154 150 154 150 149 146 146 144 146 150 147 137 131
134 133 150 164 168 183 188 129 122 78 207 227 229 212 175 203 201 196 228 224 221 173 225 227 241 195 176 165 199 221 212 222 221 235 233 236 246 242 237 241 245 247 252 259 253 254 263 255 249 244 238 234 226 204 187 189 199 193 170 165 155 164 172 171 175 170 169 160 171 168 164 162 164 161 160 154 152 151 152 153 157 154 144 134 135 141
154 131 138 148 101 151 202 115 109 209 232 236 212 179 194 181 163 202 225 221 214 214 233 243 247 205 186 190 202 217 216 226 228 233 244 240 237 240 231 233 240 243 247 254 266 257 248 250 254 257 263 267 203 179 169 192 184 154 155 161 163 172 169 175 170 177 173 174 174 171 171 169 169 164 161 158 155 154 159 160 155 153 148 145 148 149
169 162 151 111 123 62 116 164 189 218 228 293 251 220 153 174 199 205 236 232 221 214 219 231 234 226 211 218 223 192 182 246 299 262 247 262 229 233 236 239 239 235 241 238 235 248 246 251 255 259 261 202 174 186 187 189 168 165 174 165 172 172 175 171 177 183 179 184 181 180 178 172 170 164 160 160 160 164 167 167 164 154 146 135 129 122
169 157 154 161 209 164 194 189 218 5 342 270 253 202 183 187 177 180 222 248 211 214 210 228 233 231 230 220 181 157 269 346 297 277 248 240 248 216 219 237 232 231 228 246 235 250 274 286 242 232 203 188 187 186 198 172 167 167 160 172 180 173 175 176 187 193 191 189 184 182 175 172 168 166 166 167 168 173 171 165 158 151 143 137 140 139
223 164 179 154 221 131 126 65 358 278 254 239 229 28 126 138 142 162 170 263 215 212 211 217 223 219 228 216 160 180 79 307 273 260 240 250 250 244 227 236 254 252 241 245 263 270 278 280 258 222 188 201 206 204 172 161 166 167 170 181 175 177 183 189 204 200 191 192 183 178 175 175 172 170 171 173 179 176 168 153 139 147 152 150 148 143
31 37 171 168 146 81 131 175 197 202 231 232 138 163 158 150 144 126 95 262 230 188 205 206 219 217 216 203 171 144 145 218 245 250 256 233 240 240 250 247 235 243 244 238 238 259 264 263 240 227 200 188 217 203 164 165 165 167 183 182 179 179 189 206 209 197 193 186 173 171 171 170 172 170 170 175 177 171 165 162 154 141 132 134 133 134
142 154 128 102 146 190 182 183 212 216 240 237 187 175 167 141 119 108 73 253 205 177 189 190 207 211 215 191 157 169 175 213 236 250 235 238 219 223 208 236 250 252 261 257 244 231 245 239 156 169 196 210 223 166 168 160 167 180 186 186 172 186 205 212 205 170 161 159 160 161 164 167 168 170 172 174 164 162 160 144 139 148 141 133 132 132
159 139 194 188 184 180 178 231 335 278 253 217 191 167 141 148 127 124 207 233 172 180 183 186 200 203 196 160 155 178 213 209 217 228 123 183 107 252 248 244 238 226 246 248 251 265 222 203 201 215 214 225 183 157 162 160 166 190 189 174 179 211 215 182 134 157 157 149 154 161 165 166 172 169 170 166 162 149 143 149 148 142 140 137 132 128
165 158 255 135 181 190 197 197 225 259 241 180 218 155 164 114 172 206 216 127 153 181 187 171 193 187 142 157 178 197 212 216 236 294 276 213 202 230 220 247 280 280 249 216 225 207 202 199 224 259 281 182 158 162 160 163 177 185 181 179 212 216 126 141 146 138 146 151 156 159 160 162 158 156 154 145 141 147 143 132 130 137 136 135 138 136
176 166 183 189 159 37 52 201 358 260 240 153 115 108 276 187 208 154 114 36 59 155 150 186 168 181 162 182 194 202 213 169 202 224 241 262 250 252 224 221 231 236 249 240 214 195 162 193 223 233 230 192 157 159 165 166 181 186 186 209 215 142 141 139 143 145 148 151 156 161 161 159 156 155 150 148 148 143 141 136 134 133 136 137 135 135
170 168 171 205 183 182 184 188 208 227 52 139 145 180 205 207 238 143 112 161 276 149 166 160 206 179 184 169 188 216 218 208 265 260 267 275 257 261 261 238 241 275 279 279 238 252 152 185 197 216 211 171 163 164 171 172 184 190 199 219 148 146 138 143 146 149 154 163 166 161 164 163 159 154 154 151 147 143 143 147 144 144 150 151 146 146
204 197 180 190 187 182 198 207 157 168 156 177 172 175 180 203 190 198 140 149 165 232 204 157 187 194 187 181 177 186 195 206 213 201 193 227 232 236 245 246 218 224 224 235 239 207 169 187 195 184 186 206 179 179 180 186 185 191 209 198 147 151 152 148 150 154 163 165 165 164 160 154 159 159 156 157 153 153 155 153 157 153 166 158 159 159
235 200 49 89 252 330 319 204 175 156 208 193 21 338 176 185 193 227 160 150 214 174 167 176 188 179 191 183 151 185 203 200 202 211 221 240 234 252 262 279 277 131 179 199 229 190 177 153 153 164 196 230 212 195 188 199 190 198 207 149 157 153 150 150 152 163 167 165 163 163 153 152 151 152 156 159 168 168 169 165 169 165 165 168 168 169
233 129 83 164 218 163 240 211 161 201 189 212 218 327 263 193 188 177 196 202 182 164 188 217 169 179 177 169 178 179 200 191 190 209 206 222 237 243 249 263 304 199 197 215 238 152 137 150 162 193 193 213 235 205 207 201 221 202 137 161 152 149 147 154 161 162 162 162 157 152 161 163 164 162 162 167 168 168 171 174 174 168 168 174 171 174
232 189 159 175 155 184 227 207 168 193 192 198 196 204 186 200 170 182 178 159 166 222 223 180 98 114 125 174 198 181 187 179 183 193 189 205 221 244 250 259 263 297 258 237 232 180 160 176 202 214 202 229 250 209 207 199 211 146 132 138 146 143 147 157 168 166 170 168 163 168 173 175 169 168 173 180 176 173 177 189 186 180 180 179 180 175
133 121 200 171 175 241 324 280 216 128 224 222 222 235 224 186 185 198 183 129 114 161 152 79 53 153 173 187 168 183 165 192 183 159 161 184 194 205 212 210 200 199 176 162 218 185 191 196 198 213 189 246 263 192 186 198 141 136 148 152 151 151 151 160 158 152 158 162 161 174 178 175 177 179 177 179 191 203 197 186 188 192 201 220 206 192
113 187 176 155 196 204 210 208 136 144 221 245 238 218 227 217 192 189 144 190 195 179 168 137 72 56 115 142 160 172 187 182 177 161 172 173 185 200 210 208 186 157 159 169 98 156 128 108 172 183 203 229 195 179 184 173 151 152 154 150 155 154 157 153 152 156 172 171 175 172 169 174 176 182 180 182 187 187 211 251 217 231 210 200 194 199
181 181 157 185 194 215 218 134 177 178 181 192 190 204 211 188 164 169 191 205 206 180 161 145 126 103 87 47 238 146 156 141 165 139 124 155 209 208 179 158 146 115 142 132 134 136 180 197 172 178 206 237 122 162 161 159 154 163 163 164 162 163 161 155 161 172 173 174 187 182 181 177 181 185 187 188 187 188 188 187 190 176 118 144 180 187